GW0720 Weather Reports


Display with metric or nautical units.
time (UTC)temp
F
wind
direction
speed
MPH
gust
MPH
rain 1hr
in
rain 24hr
in
rain mn
in
humidity
%
barometer
mb
20260903173102 94 0 0.0 2.0 0.00 0.00 0.00 65 1018.1
20260903171748 93 98 0.0 4.0 0.00 0.00 0.00 67 1018.1
20260903171647 93 98 0.0 4.0 0.00 0.00 0.00 67 1018.1
20260903170106 92 27 0.0 6.0 0.00 0.00 0.00 72 1018.3
20260903164834 91 0 0.0 4.0 0.00 0.00 0.00 71 1018.4
20260903163218 91 0 0.0 3.0 0.00 0.00 0.00 72 1018.4
20260903163059 91 0 0.0 3.0 0.00 0.00 0.00 72 1018.4
20260903162044 90 0 0.0 3.0 0.00 0.00 0.00 70 1018.5
20260903161601 90 0 0.0 3.0 0.00 0.00 0.00 70 1018.5
20260903154600 91 0 0.0 3.0 0.00 0.00 0.00 67 1018.5
20260903153341 91 269 0.0 3.0 0.00 0.00 0.00 69 1018.7
20260903153249 91 269 0.0 3.0 0.00 0.00 0.00 69 1018.7
20260903151558 90 0 0.0 6.0 0.00 0.00 0.00 72 1018.8
20260903150105 89 0 1.0 3.0 0.00 0.00 0.00 75 1018.7
20260903144559 88 0 0.0 5.0 0.00 0.00 0.00 72 1018.5
20260903143105 87 0 0.0 4.0 0.00 0.00 0.00 74 1018.1
20260903141607 86 0 0.0 1.0 0.00 0.00 0.00 76 1018.0
20260903140111 83 0 0.0 2.0 0.00 0.00 0.00 82 1017.8
20260903134602 81 0 1.0 3.0 0.00 0.00 0.00 83 1018.0
20260903133103 79 0 0.0 1.0 0.00 0.00 0.00 89 1017.9
20260903131633 77 0 0.0 3.0 0.00 0.00 0.00 93 1018.0
20260903130115 76 0 0.0 1.0 0.00 0.00 0.00 96 1018.3
20260903124604 76 0 0.0 0.0 0.00 0.00 0.00 97 1018.5
20260903123104 76 0 0.0 1.0 0.00 0.00 0.00 97 1018.5
20260903121623 76 0 0.0 0.0 0.00 0.00 0.00 97 1018.5
20260903110138 73 0 0.0 0.0 0.00 0.00 0.00 96 1017.7
20260903103101 74 0 0.0 0.0 0.00 0.00 0.00 96 1017.6
20260903101559 74 0 0.0 0.0 0.00 0.00 0.00 96 1017.5
20260903100104 74 0 0.0 0.0 0.00 0.00 0.00 96 1017.4
20260903094610 74 0 0.0 0.0 0.00 0.00 0.00 96 1017.6
20260903093107 74 0 0.0 0.0 0.00 0.00 0.00 96 1017.5
20260903091606 74 0 0.0 0.0 0.00 0.00 0.00 96 1017.4
20260903084604 74 0 0.0 0.0 0.00 0.00 0.00 96 1017.2
20260903083058 74 0 0.0 0.0 0.00 0.00 0.00 96 1017.1
20260903081557 74 0 0.0 0.0 0.00 0.00 0.00 95 1017.2
20260903080055 74 0 0.0 0.0 0.00 0.00 0.00 95 1017.4
20260903074558 74 0 0.0 0.0 0.00 0.00 0.00 95 1017.5
20260903073100 75 0 0.0 0.0 0.00 0.00 0.00 95 1017.4
20260903071552 75 0 0.0 0.0 0.00 0.00 0.00 95 1017.5
20260903064557 75 0 0.0 0.0 0.00 0.00 0.00 95 1017.6
20260903063057 75 0 0.0 0.0 0.00 0.00 0.00 95 1017.7
20260903061559 75 0 0.0 0.0 0.00 0.00 0.00 95 1017.8
20260903060122 75 0 0.0 0.0 0.00 0.00 0.00 95 1017.8
20260903054601 75 0 0.0 0.0 0.00 0.00 0.00 95 1018.1
20260903053100 76 0 0.0 0.0 0.00 0.00 0.00 95 1018.3
20260903051608 76 0 0.0 0.0 0.00 0.00 0.00 95 1018.4
20260903044605 76 0 0.0 1.0 0.00 0.00 0.00 95 1018.3
20260903043104 76 0 0.0 0.0 0.00 0.00 0.00 95 1018.2
20260903041559 76 0 0.0 0.0 0.00 0.00 0.00 95 1018.0
20260903040104 76 0 0.0 0.0 0.00 0.00 0.00 94 1017.8
20260903034601 76 0 0.0 0.0 0.00 0.00 0.00 94 1017.9
20260903033104 76 0 0.0 0.0 0.00 0.00 0.00 94 1017.7
20260903031559 76 0 0.0 0.0 0.00 0.00 0.00 94 1017.7
20260903030056 76 0 0.0 0.0 0.00 0.00 0.00 93 1017.9
20260903024556 76 0 0.0 0.0 0.00 0.00 0.00 93 1017.8
20260903023100 77 0 0.0 0.0 0.00 0.00 0.00 93 1018.0
20260903021600 77 0 0.0 0.0 0.00 0.00 0.00 93 1018.1
20260903020056 77 0 0.0 0.0 0.00 0.00 0.00 92 1018.2
20260903014632 77 0 0.0 0.0 0.00 0.00 0.00 92 1018.2
20260903013111 78 0 0.0 0.0 0.00 0.00 0.00 91 1018.2
20260903011611 78 0 0.0 1.0 0.00 0.00 0.00 91 1018.3
20260903010107 79 0 0.0 0.0 0.00 0.00 0.00 90 1018.3
20260903004605 79 0 0.0 0.0 0.00 0.00 0.00 89 1018.3
20260903003102 79 0 0.0 0.0 0.00 0.00 0.00 89 1018.2
20260903001557 80 0 0.0 0.0 0.00 0.00 0.00 88 1018.2
20260903000107 80 0 0.0 0.0 0.00 0.00 0.00 87 1017.9
20260902234605 81 0 0.0 0.0 0.00 0.00 0.00 86 1017.9
20260902233121 81 0 0.0 1.0 0.00 0.00 0.00 85 1017.7
20260902231603 82 0 0.0 0.0 0.00 0.00 0.00 84 1018.6
20260902230108 82 51 0.0 2.0 0.00 0.00 0.00 84 1018.4
20260902224610 82 48 0.0 2.0 0.00 0.00 0.00 84 1018.2
20260902223126 83 0 0.0 2.0 0.00 0.00 0.00 84 1018.9
20260902221558 83 0 0.0 1.0 0.00 0.00 0.00 84 1018.7
20260902220111 84 84 0.0 2.0 0.00 0.00 0.00 82 1018.7
20260902214610 85 0 0.0 4.0 0.00 0.00 0.00 78 1018.7
20260902213105 86 169 1.0 4.0 0.00 0.00 0.00 76 1018.5
20260902211601 87 76 0.0 3.0 0.00 0.00 0.00 67 1018.5
20260902210059 88 78 1.0 9.0 0.00 0.00 0.00 67 1018.7
20260902204605 92 0 1.0 4.0 0.00 0.00 0.00 69 1019.1
20260902203104 92 238 1.0 4.0 0.00 0.00 0.00 67 1018.4
20260902201601 91 0 0.0 3.0 0.00 0.00 0.00 69 1018.6
20260902194601 94 0 0.0 2.0 0.00 0.00 0.00 66 1018.4
20260902193106 95 0 0.0 2.0 0.00 0.00 0.00 63 1018.3
20260902191638 95 0 0.0 4.0 0.00 0.00 0.00 61 1018.3
20260902190101 94 0 0.0 3.0 0.00 0.00 0.00 64 1018.5
20260902184656 94 229 0.0 4.0 0.00 0.00 0.00 62 1018.7
20260902183109 94 0 0.0 4.0 0.00 0.00 0.00 60 1018.9
20260902181602 94 243 1.0 4.0 0.00 0.00 0.00 61 1018.9
20260902174613 95 245 0.0 4.0 0.00 0.00 0.00 58 1019.1